Cozumel, Mexico

3:52 AM EST on May 27, 2018 (GMT -0500)
Cozumel

Weather History for MMCZ - December, 2011

Change the Weather History Date:

Wednesday, December 14, 2011

  Actual Average Record
Temperature  
Mean Temperature 72 °F -  
Max Temperature 77 °F 80 °F 89 °F (2015)
Min Temperature 68 °F 70 °F 57 °F (2014)
Cooling Degree Days 8    
Growing Degree Days 22 (Base 50)    
Moisture  
Dew Point 66 °F    
Average Humidity 81    
Maximum Humidity 94    
Minimum Humidity 69    
Precipitation  
Precipitation 0.00 in - - ()
Sea Level Pressure  
Sea Level Pressure 30.06 in    
Wind  
Wind Speed 7 mph ()    
Max Wind Speed 15 mph    
Max Gust Speed 23 mph    
Visibility 7.5 miles    
Events      
Averages and records for this station are not official NWS values.
T = Trace of Precipitation, MM = Missing Value Source: Averaged Metar Reports

Daily Weather History Graph

Daily Weather History Graph

Search for Another Location

Airport or City:

Astronomy

Dec. 14, 2011 Rise Set
Actual Time 6:15 AM CST 5:09 PM CST
Civil Twilight 5:51 AM CST 5:33 PM CST
Nautical Twilight 5:23 AM CST 6:01 PM CST
Astronomical Twilight 4:56 AM CST 6:28 PM CST
Moon 9:05 PM CST (12/14) 9:19 AM CST (12/14)
Length of Visible Light 11h 42m
Length of Day
10h 54m
Waning Gibbous, 83% of the Moon is Illuminated
Dec 14
Waning Gibbous
Dec 17
Last Quarter
Dec 24
New
Jan 1
First Quarter
Jan 9
Full

Hourly Weather History & Observations

Time (CST) Temp. Dew Point Humidity Pressure Visibility Wind Dir Wind Speed Gust Speed Precip Events Conditions
12:44 AM 71.6 °F 68.0 °F 88% 30.08 in 7.0 mi NE 4.6 mph - N/A   Mostly Cloudy
1:58 AM 71.6 °F 68.0 °F 88% 30.07 in 7.0 mi NNE 6.9 mph - N/A   Scattered Clouds
2:46 AM 69.8 °F 68.0 °F 94% 30.08 in 7.0 mi NE 3.5 mph - N/A   Mostly Cloudy
3:42 AM 71.6 °F 68.0 °F 88% 29.95 in 8.0 mi ENE 9.2 mph - N/A   Scattered Clouds
4:40 AM 71.6 °F 68.0 °F 88% 30.04 in 7.0 mi East 4.6 mph - N/A   Scattered Clouds
5:52 AM 71.6 °F 68.0 °F 88% 30.04 in 7.0 mi East 6.9 mph - N/A   Scattered Clouds
6:45 AM 69.8 °F 66.2 °F 88% 30.07 in 7.0 mi East 6.9 mph - N/A   Mostly Cloudy
7:48 AM 75.2 °F 68.0 °F 78% 30.09 in 8.0 mi East 8.1 mph - N/A   Mostly Cloudy
8:43 AM 75.2 °F 68.0 °F 78% 30.13 in 8.0 mi East 11.5 mph - N/A   Mostly Cloudy
9:49 AM 77.0 °F 68.0 °F 74% 30.10 in 8.0 mi East 13.8 mph - N/A   Mostly Cloudy
10:45 AM 77.0 °F 68.0 °F 74% 30.09 in 8.0 mi East 11.5 mph - N/A   Mostly Cloudy
11:44 AM 77.0 °F 66.2 °F 69% 30.06 in 8.0 mi ENE 9.2 mph - N/A   Mostly Cloudy
12:41 PM 77.0 °F 66.2 °F 69% 30.05 in 8.0 mi ENE 11.5 mph - N/A   Mostly Cloudy
1:46 PM 77.0 °F 66.2 °F 69% 30.04 in 8.0 mi ENE 11.5 mph 23.0 mph N/A   Mostly Cloudy
2:40 PM 75.2 °F 66.2 °F 73% 30.05 in 8.0 mi ENE 15.0 mph - N/A   Mostly Cloudy
3:40 PM 75.2 °F 64.4 °F 69% 30.03 in 8.0 mi East 9.2 mph - N/A   Mostly Cloudy
4:40 PM 73.4 °F 64.4 °F 73% 30.03 in 8.0 mi East 8.1 mph - N/A   Mostly Cloudy
5:42 PM 71.6 °F 64.4 °F 78% 30.01 in 7.0 mi East 5.8 mph - N/A   Mostly Cloudy
6:40 PM 69.8 °F 64.4 °F 83% 30.06 in 7.0 mi East 3.5 mph - N/A   Scattered Clouds
7:40 PM 69.8 °F 64.4 °F 83% 30.08 in 7.0 mi East 5.8 mph - N/A   Scattered Clouds
8:41 PM 69.8 °F 64.4 °F 83% 30.12 in 7.0 mi East 5.8 mph - N/A   Mostly Cloudy
9:41 PM 69.8 °F 66.2 °F 88% 30.10 in 7.0 mi East 6.9 mph - N/A   Partly Cloudy
10:49 PM 68.0 °F 64.4 °F 88% 30.09 in 7.0 mi East 4.6 mph - N/A   Partly Cloudy
11:53 PM 68.0 °F 64.4 °F 88% 30.05 in 7.0 mi East 3.5 mph - N/A   Clear